Salem, Oregon, United States (97301)
Lat: 44.94N, Lon: 123.03W
Wx Zone: ORZ007
Local Info
Past Weather Observations for Wednesday, February 25, 2015

NOTE: This archive is for the closest National Weather Service station to Salem. Information may differ from the station used for current weather conditions.

Click here for Long-term Archive

Time Weather Temperature Dewpoint Humidity Pressure Winds Precip Visibility
21:56
Overcast
46°F / 8°C 45°F / 7°C 93% 30.33 in
(1027 mb)
S 4.6 mph
(S 7 kph)
- 10SM
20:56
Mostly Cloudy
48°F / 9°C 45°F / 7°C 87% 30.33 in
(1027 mb)
SSE 5.8 mph
(SSE 9 kph)
0.00 in
(0.00 mm)
10SM
19:56
Overcast
48°F / 9°C 45°F / 7°C 87% 30.33 in
(1027 mb)
Calm - 10SM
19:53
Overcast
48°F / 9°C 45°F / 7°C 87% 30.33 in
(1027 mb)
Calm - 10SM
18:56
Overcast
50°F / 10°C 43°F / 6°C 76% 30.36 in
(1028 mb)
SW 4.6 mph
(SW 7 kph)
- 10SM
17:56
Overcast
50°F / 10°C 43°F / 6°C 76% 30.36 in
(1028 mb)
Calm 0.00 in
(0.00 mm)
10SM
16:56
Overcast
Light Rain
52°F / 11°C 43°F / 6°C 72% 30.36 in
(1028 mb)
S 8.1 mph
(S 13 kph)
0.00 in
(0.00 mm)
10SM
16:03
Mostly Cloudy
52°F / 11°C 43°F / 6°C 72% 30.39 in
(1029 mb)
SSE 6.9 mph
(SSE 11 kph)
- 10SM
15:56
Overcast
52°F / 11°C 43°F / 6°C 72% 30.36 in
(1028 mb)
S 5.8 mph
(S 9 kph)
- 10SM
14:56
Overcast
52°F / 11°C 45°F / 7°C 77% 30.39 in
(1029 mb)
SSE 6.9 mph
(SSE 11 kph)
- 10SM
14:14
Overcast
50°F / 10°C 43°F / 6°C 76% 30.39 in
(1029 mb)
S 9.2 mph
(S 15 kph)
- 10SM
13:56
Overcast
52°F / 11°C 41°F / 5°C 67% 30.39 in
(1029 mb)
S 8.1 mph
(S 13 kph)
- 10SM
12:56
Overcast
50°F / 10°C 39°F / 4°C 67% 30.42 in
(1030 mb)
S 5.8 mph
(S 9 kph)
- 10SM
11:56
Overcast
48°F / 9°C 37°F / 3°C 66% 30.42 in
(1030 mb)
S 8.1 mph
(S 13 kph)
- 10SM
10:56
Overcast
48°F / 9°C 37°F / 3°C 66% 30.45 in
(1031 mb)
SSE 6.9 mph
(SSE 11 kph)
- 10SM
09:56
Mostly Cloudy
45°F / 7°C 37°F / 3°C 76% 30.45 in
(1031 mb)
SSE 8.1 mph
(SSE 13 kph)
- 10SM
08:56
Clear
41°F / 5°C 36°F / 2°C 81% 30.48 in
(1032 mb)
S 3.5 mph
(S 6 kph)
- 10SM
07:56
Clear
39°F / 4°C 34°F / 1°C 81% 30.45 in
(1031 mb)
S 3.5 mph
(S 6 kph)
- 10SM
06:56
Clear
37°F / 3°C 34°F / 1°C 87% 30.45 in
(1031 mb)
Calm - 10SM
05:56
Partly Cloudy
37°F / 3°C 34°F / 1°C 87% 30.45 in
(1031 mb)
Calm - 10SM
04:56
Mostly Cloudy
39°F / 4°C 34°F / 1°C 81% 30.45 in
(1031 mb)
SSE 8.1 mph
(SSE 13 kph)
- 10SM
03:56
Overcast
39°F / 4°C 36°F / 2°C 87% 30.45 in
(1031 mb)
SSE 6.9 mph
(SSE 11 kph)
- 10SM
02:56
Mostly Cloudy
37°F / 3°C 36°F / 2°C 93% 30.45 in
(1031 mb)
S 4.6 mph
(S 7 kph)
- 10SM
01:56
Clear
37°F / 3°C 34°F / 1°C 87% 30.45 in
(1031 mb)
S 4.6 mph
(S 7 kph)
- 10SM
00:56
Clear
39°F / 4°C 36°F / 2°C 87% 30.45 in
(1031 mb)
Calm - 10SM
Time Weather Temperature Dewpoint Humidity Pressure Winds Precip Visibility


Weather for websites

WeatherForYou.com, LLC is not responsible for any damages or problems caused by this service. Current weather conditions are obtained from the closest station including government and personal stations which may have varying degrees of accuracy. Weather forecasts are derived from the NOAA NDFD. Like all things, this site belongs to Jesus Christ... He just trusts me to maintain it. If you have any questions or comments email webmaster@weatherforyou.com

Copyright © 2015, WeatherForYou.com LLC. All rights reserved.